Location: Castiglione Fibocchi
(43.5333°N, 11.7667°E)
Time: 09:10:02
(UTC+00:00)

H-2A R/B - Pass Details

Date: 15 August 2020
Orbit: 578 x 654 km, 98.5° (Epoch: 19 September)

Event Time Altitude Azimuth Distance (km) Brightness Sun altitude
Rises 02:40:01 0° 161° (SSE) 2,788 5.2 -16.3°
Reaches altitude 10° 02:42:10 10° 160° (SSE) 1,889 4.4 -16.0°
Maximum altitude 02:46:14 77° 74° (ENE) 598 2.0 -15.4°
Drops below altitude 10° 02:50:21 10° 349° (N) 1,905 4.9 -14.8°
Sets 02:52:31 0° 348° (NNW) 2,814 5.8 -14.5°
